Location: *
(40.7873°S, 98.7174°E)
Time: 12:31:47
(UTC+00:00)

Kosmos-1816 - Pass Details

Date: 25 June 2024
Orbit: 959 x 1007 km, 82.9° (Epoch: 23 July)

Event Time Altitude Azimuth Distance (km) Brightness Sun altitude
Rises 12:17:47 0° 191° (SSW) 3,759 9.1 -24.1°
Reaches altitude 10° 12:20:22 10° 194° (SSW) 2,797 8.4 -24.6°
Maximum altitude 12:26:41 61° 272° (W) 1,122 6.5 -25.8°
Drops below altitude 10° 12:32:51 10° 351° (N) 2,732 8.5 -27.0°
Sets 12:35:21 0° 354° (N) 3,665 9.2 -27.4°
